Printer-friendly version

IAU Minor Planet Center

Minor Planet Center

MPEC 2006-F56 : 2005 UK

The following Minor Planet Electronic Circular may be linked-to from your own Web pages, but must not otherwise be redistributed electronically.


Read MPEC 2006-F55 Read MPEC 2006-F57


M.P.E.C. 2006-F56                                Issued 2006 Mar. 31, 05:30 UT

     The Minor Planet Electronic Circulars contain information on unusual
         minor planets and routine data on comets.  They are published
   on behalf of Commission 20 of the International Astronomical Union by the
          Minor Planet Center, Smithsonian Astrophysical Observatory,
                          Cambridge, MA 02138, U.S.A.

                  Supported in part by the Brinson Foundation
                  Supported in part by the TABASGO Foundation
             Prepared using the Tamkin Foundation Computer Network

                              MPC@CFA.HARVARD.EDU
          URL http://cfa-www.harvard.edu/iau/mpc.html  ISSN 1523-6714

                                    2005 UK

                           Revision to MPEC 2005-U27

Additional Observations:
     K05U00K & 1976 03 30.74846 16 47 47.70 -76 25 40.0                 EF056260
     K05U00K & 1976 03 30.78665 16 47 49.66 -76 24 58.0                 EF056260
     K05U00K  C2002 09 23.37462 21 02 01.59 +65 39 45.5          20.9 R EF056644
     K05U00K  C2002 09 23.38502 21 02 02.07 +65 39 26.3          20.3 R EF056644
     K05U00K  C2002 09 23.39539 21 02 02.65 +65 39 06.2          20.6 R EF056644

Observer details:
260 Siding Spring-DSS.  Measurer R. Matson.  1.2-m Schmidt.
644 Palomar Mountain/NEAT.  Observers E. F. Helin, S. Pravdo, K. Lawrence,
    K. Kuluhiwa, M. Hicks.  Measurer R. Matson.  1.2-m Schmidt + CCD.

Orbital elements:
2005 UK                                                  Earth MOID = 0.1288 AU
Epoch 2006 Mar. 6.0 TT = JDT 2453800.5                  MPC
M 179.33385              (2000.0)            P               Q
n   0.38030888     Peri.   19.37583     -0.56375733     +0.61559164
a   1.8867386      Node   222.60328     -0.82354237     -0.46972916
e   0.4068391      Incl.   54.43720     -0.06289392     +0.63277283
P   2.59           H   17.4           G   0.15           U   3
Residuals in seconds of arc
760330 260  0.1+  0.9+    051023 673  0.7+  0.4+    051107 F65  0.0   0.9+
760330 260  0.1-  0.9-    051023 673  0.9-  0.2-    051110 291  0.1-  0.6+
020923 644  0.1+  0.5-    051023 673  0.3+  0.6+    051110 291  0.3-  0.3+
020923 644  0.2-  0.3+    051023 673  0.3-  0.2+    051110 291  0.3-  0.5+
020923 644  0.1+  0.2+    051024 291  0.2-  0.4+    051121 691  0.4+  0.9+
051022 691  0.2-  0.3+    051024 291  0.4-  0.2+    051121 691  0.0   0.2-
051022 691  0.5+  0.1+    051024 291  0.4-  0.1+    051121 691  0.5+  0.1+
051022 691  0.2-  0.6-    051027 G96  0.1+  0.4-    051125 G96  0.0   0.2-
051022 291  0.2+  0.4+    051027 G96  0.3-  0.0     051125 G96  0.5-  0.5-
051022 291  0.5-  1.1-    051027 G96  0.2-  0.3-    051125 G96  0.7-  0.3-
051022 291  0.3+  0.8-    051027 G96  0.0   0.3-    051125 G96  0.1-  0.0
051023 J95  0.3+  0.4-    051102 291  0.0   0.1+    051130 G96  0.3+  0.0
051023 J95  0.3+  0.7-    051102 291  0.2+  0.1+    051130 G96  0.1-  0.4-
051023 734 (2.5-  0.0 )   051102 291  0.1-  0.1+    051130 G96  0.4+  0.4-
051023 651  0.2-  1.5+    051106 691  0.1+  0.2+    051130 G96  0.5+  0.2-
051023 734  0.4-  0.5+    051106 691  0.0   0.5+    051201 691  0.7+  0.2-
051023 651  0.8+  1.3+    051106 691  0.1+  0.2+    051201 691  0.2+  0.3+
051023 651  0.0   0.3+    051106 691  0.3-  0.3+    051201 691  0.1+  0.0
051023 734  0.2-  0.4-    051106 691  0.4-  0.2+    051223 291  0.1+  0.4+
051023 291  0.1-  0.2+    051106 691  0.5-  0.3+    051223 291  0.5+  0.3+
051023 291  0.3+  0.6+    051107 F65  0.4-  0.4+    051223 291  0.2+  0.1-
051023 291  0.1+  0.5+    051107 F65  0.1-  0.4+

Gareth V. Williams           (C) Copyright 2006 MPC           M.P.E.C. 2006-F56

Read MPEC 2006-F55 Read MPEC 2006-F57


Our Web policy. Index to the CBAT/MPC/ICQ pages.


Valid HTML 4.01!